Location: Gugi
(45.4667°N, 11.1000°E)
Time: 10:29:30
(UTC+00:00)

CZ-4B R/B - Pass Details

Date: 17 November 2019
Orbit: 394 x 468 km, 97.6° (Epoch: 15 December)

Event Time Altitude Azimuth Distance (km) Brightness Sun altitude
Rises 16:21:40 0° 357° (N) 2,438 4.9 -6.9°
Reaches altitude 10° 16:24:04 10° 339° (NNW) 1,578 4.2 -7.3°
Maximum altitude 16:26:31 19° 293° (WNW) 1,141 4.1 -7.7°
Drops below altitude 10° 16:29:00 10° 246° (WSW) 1,594 5.9 -8.1°
Sets 16:31:26 0° 228° (SW) 2,474 6.6 -8.5°
